Location: Newark
(49.2191°N, 12.6671°E)
Time: 14:57:25
(UTC+00:00)

Transit 4A - Pass Details

Date: 29 January 2020
Orbit: 872 x 973 km, 66.8° (Epoch: 22 February)

Event Time Altitude Azimuth Distance (km) Brightness Sun altitude
Rises 13:54:15 0° 321° (NW) 3,472 10.8 14.8°
Reaches altitude 10° 13:56:48 10° 316° (NW) 2,530 10.2 14.6°
Maximum altitude 14:02:21 48° 244° (WSW) 1,139 9.4 14.0°
Drops below altitude 10° 14:07:56 10° 171° (S) 2,538 10.9 13.4°
Sets 14:10:30 0° 166° (SSE) 3,485 11.4 13.2°
